Cloud_Cover
2 5 87 92 69 90 13 46 73 100 95 40 42 77 29 60 19 14 100 21 0 0 4 0 0 0 2 0 2 0 0 1 2 8 3 18 5 70 100 100 92 100 100 100 100 100 100 100 75
0 2 60 39 100 2 30 14 5 10 6 50 56 13 1 0 0 10 2 36 0 0 0 0 0 0 0 0 14 14 1 0 0 19 10 7 4 18 100 100 100 100 100 100 100 100 100 100 100
0 4 22 88 20 95 36 4 6 29 26 100 22 89 9 0 16 0 27 14 43 0 0 0 0 2 0 0 0 0 11 2 9 5 1 15 10 6 100 100 100 100 100 100 100 100 100 100 100
4 53 21 39 56 4 25 3 5 54 1 4 18 3 0 2 0 0 66 98 53 0 0 0 0 0 0 0 0 6 0 10 2 18 0 87 14 6 100 100 100 100 100 100 100 100 100 100 100
4 90 99 17 60 18 12 45 0 1 0 4 0 0 5 8 0 5 100 27 20 0 0 0 0 4 0 1 13 4 0 0 3 97 0 32 97 88 100 100 100 100 100 100 100 100 100 100 100
100 93 89 14 77 4 24 38 6 1 0 0 2 1 10 0 0 87 51 27 90 0 0 0 0 0 3 0 0 4 0 0 5 2 6 5 5 95 100 100 100 100 100 100 100 100 100 83 10
100 100 95 88 7 5 6 19 42 5 8 43 2 0 0 11 1 65 44 89 3 0 0 0 0 0 0 0 0 1 8 0 0 0 0 3 5 46 100 100 100 100 100 98 100 100 100 98 30
98 100 100 38 41 5 4 4 26 11 100 100 98 1 0 0 4 40 8 66 16 99 0 0 5 5 0 0 0 0 0 0 0 0 0 5 5 12 100 100 100 100 100 100 89 100 100 100 100
84 97 30 79 3 4 37 66 100 15 100 56 38 36 0 0 7 18 5 24 1 4 91 100 6 12 17 2 4 0 0 0 0 0 1 5 10 55 100 100 100 99 87 100 54 86 99 7 5
100 96 67 32 5 1 6 21 100 64 82 100 5 28 0 0 0 14 16 0 2 3 97 100 49 66 96 5 2 0 0 5 8 12 0 73 81 100 100 100 100 100 81 41 100 98 100 100 100
100 90 100 5 17 5 5 82 4 100 73 100 94 7 16 0 0 4 17 4 7 2 4 93 8 65 14 14 92 91 99 16 59 8 97 100 40 100 100 100 100 89 100 100 100 100 100 100 100
100 100 95 5 89 70 0 4 0 100 7 90 5 5 49 0 10 11 25 18 8 0 9 3 8 100 37 88 100 89 62 54 99 86 92 73 40 19 100 100 100 66 100 97 100 78 16 99 19
97 75 26 7 93 1 14 12 8 54 54 40 5 5 9 37 32 6 75 32 17 5 22 11 53 95 19 97 20 100 85 73 4 51 0 73 76 92 16 97 93 82 100 96 84 60 23 97 100
41 100 95 94 9 74 98 100 100 39 10 7 68 7 34 10 78 15 10 4 5 8 14 1 2 7 5 86 100 100 100 100 86 66 48 74 88 14 32 0 16 2 25 12 28 77 100 100 100
100 100 100 43 97 90 100 100 100 87 0 5 5 8 79 94 28 22 10 0 15 5 0 0 0 0 2 16 94 100 100 100 100 37 10 100 100 99 100 63 21 45 21 21 5 5 27 100 100
100 100 100 100 60 0 92 100 100 16 0 3 6 5 5 5 79 7 73 12 76 0 0 0 41 20 12 100 65 100 100 100 100 100 99 68 100 100 89 74 100 100 57 11 6 39 8 70 52
100 100 100 100 98 28 4 64 5 0 0 0 100 6 5 5 5 14 35 44 2 0 0 0 2 42 65 0 66 71 100 100 89 58 90 18 4 8 42 81 95 21 99 80 20 5 96 99 71
100 100 100 76 49 57 97 100 30 0 0 0 19 99 69 5 5 5 5 41 16 69 2 0 5 0 12 32 0 100 11 100 100 100 99 62 5 6 5 66 28 5 20 67 46 48 25 76 100
40 100 100 100 76 34 92 35 100 2 0 0 3 1 7 30 5 5 2 5 2 79 25 5 9 19 2 0 72 77 42 5 86 100 99 5 5 83 7 93 9 2 59 44 11 78 100 100 100
100 100 100 90 48 21 72 33 96 57 21 0 0 5 2 30 40 32 17 84 54 4 57 58 4 33 5 1 96 54 73 100 99 97 20 85 84 32 97 77 100 39 19 33 100 13 22 100 96
46 94 97 69 89 21 26 98 100 100 99 0 0 21 3 3 85 32 5 92 46 2 5 7 4 7 99 50 92 83 42 55 19 5 96 100 100 91 73 100 100 100 100 76 56 79 54 88 100
28 69 10 30 5 77 58 72 100 100 100 100 0 6 91 9 0 31 96 66 1 9 1 20 5 5 12 8 79 84 14 23 80 33 43 100 100 100 49 89 100 98 100 99 81 100 100 100 100
74 2 0 16 51 91 100 100 100 100 100 63 0 17 25 50 10 1 1 1 20 92 5 0 5 5 9 6 63 8 6 54 99 20 82 100 100 92 5 98 100 100 56 99 100 100 95 100 100
0 0 10 6 43 100 97 86 100 100 100 2 0 0 1 12 40 5 4 10 29 7 0 4 4 5 15 48 48 100 6 6 100 100 94 84 100 100 100 77 65 18 19 6 5 62 82 97 100
0 0 17 100 100 100 100 100 99 93 100 100 5 0 0 0 0 0 0 4 5 0 0 0 0 5 5 5 5 1 2 5 27 98 100 100 100 100 100 100 96 30 4 6 17 50 68 82 100
4 76 99 96 55 90 100 100 100 71 70 85 9 2 0 0 0 0 0 0 0 5 5 0 0 5 5 5 3 3 5 25 67 16 100 100 100 100 57 12 42 62 56 42 42 63 36 94 68
0 0 4 7 52 100 100 32 92 100 94 17 46 4 0 0 0 0 0 0 0 0 5 0 3 4 5 13 96 99 19 60 100 98 96 85 100 100 100 5 5 5 33 27 6 4 4 5 5
0 2 0 93 76 100 76 78 64 95 54 12 4 1 0 0 0 0 0 0 0 0 5 5 3 3 4 12 100 100 100 60 9 37 100 76 19 5 5 5 5 6 42 11 60 34 5 5 4
0 0 0 1 9 77 100 100 34 59 63 47 70 5 0 0 0 0 0 0 0 0 0 0 5 4 5 100 68 87 27 9 5 14 10 11 5 4 5 5 20 88 24 13 5 10 3 1 8
0 0 4 0 1 12 6 10 95 91 65 1 1 0 1 0 0 0 0 0 0 0 0 0 0 0 20 99 99 24 10 88 67 5 5 92 70 40 9 7 58 5 5 5 1 4 5 5 4